Location: Peebles
(55.6412°N, 3.1714°W)
Time: 15:17:43
(UTC+01:00)

LEMUR 2 NALLYWACKER - Pass Details

Date: 09 July 2022
Orbit: 502 x 518 km, 97.4° (Epoch: 16 August)

Event Time Altitude Azimuth Distance (km) Brightness Sun altitude
Rises 23:07:47 0° 205° (SSW) 2,642 ? -7.3°
Reaches altitude 10° 23:10:24 10° 225° (SW) 1,759 ? -7.5°
Maximum altitude 23:13:05 18° 270° (W) 1,318 ? -7.7°
Drops below altitude 10° 23:15:47 10° 315° (NW) 1,766 ? -7.9°
Sets 23:18:25 0° 335° (NNW) 2,657 ? -8.0°
